User: anonymous   Login
Location: Newark
(11.5710°N, 104.9241°E)
Time: 01:23:48
(UTC+00:00)
Language:

STRAND 1 - Orbit

View from above orbital plane
View from above orbital plane
View from above satellite
View from above satellite

Ground track
Ground track

The orbit data is extracted from the following two-line orbital elements,

1 39090U 13009E   20093.50263256  .00000014  00000-0  19919-4 0  9995
2 39090  98.4640 299.2278 0009785 144.5783 215.6054 14.35123594371814
Epoch (UTC): 02 April 2020 12:03:47
Eccentricity: 0.0009785
inclination: 98.4640°
perigee height: 767 km
apogee height: 781 km
right ascension of ascending node: 299.2278°
argument of perigee: 144.5783°
revolutions per day: 14.35123594
mean anomaly at epoch: 215.6054°
orbit number at epoch: 37181

The dashed part of the orbit path shows where the satellite is in the earth's shadow,  

DLR